Weather History for Boonville, MO

Change the Weather History Date:

Thursday, May 2, 2013

  Actual Average Record
Temperature  
Mean Temperature 48 °F -  
Max Temperature 86 °F 70 °F 90 °F (1959)
Min Temperature 36 °F 47 °F 34 °F (1989)
Degree Days  
Heating Degree Days 16    
Moisture  
Dew Point 40 °F    
Average Humidity 85    
Maximum Humidity 97    
Minimum Humidity 64    
Precipitation  
Precipitation 0.18 in - - ()
Sea Level Pressure  
Sea Level Pressure 30.22 in    
Wind  
Wind Speed 11 mph (NNW)    
Max Wind Speed 16 mph    
Max Gust Speed 23 mph    
Visibility 9 miles    
Events Rain , Thunderstorm    
Averages and records for this station are not official NWS values.
T = Trace of Precipitation, MM = Missing Value Source: NWS Daily Summary

Daily Weather History Graph

Daily Weather History Graph

Search for Another Location

Airport:

Trip Planner

Search our weather history database for the weather conditions in past years. The results will help you decide how hot, cold, wet, or windy it might be!

Date:

Astronomy

May. 02, 2013 Rise Set
Actual Time 6:11 AM CDT 8:04 PM CDT
Civil Twilight 5:42 AM CDT 8:33 PM CDT
Nautical Twilight 5:07 AM CDT 9:08 PM CDT
Astronomical Twilight 4:29 AM CDT 9:46 PM CDT
Moon 1:54 AM CDT (5/2) 12:58 PM CDT (5/2)
Length of Visible Light 14h 51m
Length of Day
13h 53m
Waning Gibbous, 47% of the Moon is Illuminated
May 2
Waning Gibbous
May 9
New
May 17
First Quarter
May 24
Full
May 31
Last Quarter

Hourly Weather History & Observations

Time (CDT) Temp. Windchill Dew Point Humidity Pressure Visibility Wind Dir Wind Speed Gust Speed Precip Events Conditions
12:15 AM 61.0 °F - 48.7 °F 64% 30.10 in 10.0 mi WNW 5.8 mph - N/A Rain , Thunderstorm Light Thunderstorms and Rain
12:35 AM 58.3 °F - 50.0 °F 74% 30.10 in 5.0 mi NNW 8.1 mph 17.3 mph 0.12 in Rain , Thunderstorm Heavy Thunderstorms and Rain
12:55 AM 55.9 °F - 50.7 °F 83% 30.10 in 10.0 mi NNW 9.2 mph - 0.13 in Rain Light Rain
1:15 AM 55.2 °F - 50.2 °F 83% 30.09 in 10.0 mi North 11.5 mph 18.4 mph N/A   Overcast
1:35 AM 54.0 °F - 48.9 °F 83% 30.10 in 10.0 mi NNW 9.2 mph - N/A   Mostly Cloudy
2:15 AM 51.8 °F - 47.1 °F 84% 30.12 in 10.0 mi NNW 11.5 mph 18.4 mph N/A Thunderstorm Mostly Cloudy
2:35 AM 51.1 °F - 45.7 °F 82% 30.12 in 10.0 mi NNW 10.4 mph 18.4 mph N/A   Scattered Clouds
2:55 AM 50.2 °F - 44.8 °F 82% 30.12 in 10.0 mi North 13.8 mph 19.6 mph N/A   Mostly Cloudy
3:15 AM 49.8 °F - 44.1 °F 81% 30.13 in 10.0 mi NNW 10.4 mph 17.3 mph N/A   Overcast
3:35 AM 49.3 °F - 43.3 °F 80% 30.13 in 10.0 mi North 9.2 mph 18.4 mph N/A   Scattered Clouds
3:55 AM 48.6 °F - 42.6 °F 80% 30.14 in 10.0 mi North 13.8 mph - N/A   Scattered Clouds
4:15 AM 48.0 °F - 41.9 °F 79% 30.14 in 10.0 mi North 13.8 mph 19.6 mph N/A   Overcast
4:35 AM 47.7 °F - 41.5 °F 79% 30.16 in 10.0 mi North 9.2 mph - N/A   Mostly Cloudy
4:55 AM 47.1 °F - 41.7 °F 81% 30.18 in 10.0 mi North 9.2 mph - N/A   Mostly Cloudy
5:15 AM 47.1 °F - 41.0 °F 79% 30.19 in 10.0 mi NNW 9.2 mph - N/A   Overcast
5:35 AM 46.0 °F 41.4 °F 40.5 °F 81% 30.19 in 10.0 mi NNW 9.2 mph 17.3 mph N/A   Mostly Cloudy
5:55 AM 45.9 °F 41.7 °F 40.3 °F 81% 30.21 in 10.0 mi North 8.1 mph - N/A   Mostly Cloudy
6:15 AM 46.4 °F 41.5 °F 40.6 °F 80% 30.22 in 10.0 mi NW 10.4 mph 16.1 mph N/A   Overcast
6:35 AM 46.0 °F 40.6 °F 40.3 °F 80% 30.22 in 10.0 mi North 11.5 mph 19.6 mph N/A   Overcast
6:55 AM 46.0 °F 39.9 °F 40.6 °F 81% 30.22 in 10.0 mi NNW 13.8 mph 18.4 mph N/A   Overcast
7:15 AM 46.0 °F 41.0 °F 40.5 °F 81% 30.23 in 10.0 mi North 10.4 mph 19.6 mph N/A   Overcast
7:35 AM 46.0 °F 41.0 °F 40.5 °F 81% 30.23 in 10.0 mi North 10.4 mph - N/A   Overcast
7:55 AM 46.0 °F 40.6 °F 40.5 °F 81% 30.23 in 10.0 mi North 11.5 mph - N/A   Overcast
8:15 AM 46.4 °F 41.1 °F 40.5 °F 80% 30.23 in 10.0 mi North 11.5 mph - N/A   Overcast
8:35 AM 46.4 °F 41.1 °F 40.3 °F 79% 30.24 in 10.0 mi NNW 11.5 mph - N/A   Overcast
8:55 AM 46.6 °F - 40.5 °F 79% 30.24 in 7.0 mi North 13.8 mph 18.4 mph N/A   Overcast
9:15 AM 46.4 °F 41.1 °F 40.3 °F 79% 30.23 in 10.0 mi North 11.5 mph 17.3 mph N/A   Overcast
9:35 AM 46.4 °F 40.7 °F 40.3 °F 79% 30.24 in 7.0 mi NNW 12.7 mph 16.1 mph N/A   Overcast
9:55 AM 46.6 °F - 40.1 °F 78% 30.25 in 7.0 mi NNW 13.8 mph - N/A   Overcast
10:15 AM 46.4 °F 41.5 °F 40.3 °F 79% 30.25 in 7.0 mi North 10.4 mph - N/A   Overcast
10:35 AM 46.2 °F 40.8 °F 40.3 °F 80% 30.26 in 7.0 mi North 11.5 mph 17.3 mph N/A   Overcast
10:55 AM 45.5 °F 40.3 °F 40.3 °F 82% 30.27 in 5.0 mi NNW 10.4 mph 23.0 mph N/A   Haze
11:15 AM 45.5 °F 41.3 °F 40.8 °F 84% 30.27 in 7.0 mi NW 8.1 mph - N/A   Overcast
11:35 AM 46.0 °F 39.9 °F 40.3 °F 80% 30.28 in 10.0 mi NNW 13.8 mph 17.3 mph N/A   Overcast
11:55 AM 45.5 °F 39.6 °F 40.1 °F 81% 30.28 in 10.0 mi NW 12.7 mph 17.3 mph N/A   Overcast
12:15 PM 45.0 °F 38.9 °F 40.1 °F 83% 30.28 in 10.0 mi North 12.7 mph 17.3 mph N/A   Light Drizzle
12:55 PM 44.6 °F 39.2 °F 41.4 °F 88% 30.26 in 7.0 mi NNW 10.4 mph - N/A   Light Drizzle
1:15 PM 44.2 °F 38.0 °F 41.7 °F 91% 30.26 in 7.0 mi NNW 12.7 mph 17.3 mph N/A   Overcast
1:35 PM 44.1 °F 37.7 °F 41.7 °F 91% 30.27 in 10.0 mi NNW 12.7 mph 16.1 mph N/A   Overcast
1:55 PM 43.9 °F 36.8 °F 41.4 °F 91% 30.26 in 10.0 mi North 15.0 mph - N/A   Light Drizzle
2:15 PM 43.7 °F 37.3 °F 41.4 °F 91% 30.26 in 10.0 mi NNW 12.7 mph - N/A   Overcast
2:35 PM 43.0 °F 38.2 °F 41.0 °F 93% 30.27 in 10.0 mi NNW 8.1 mph 17.3 mph N/A   Overcast
2:55 PM 42.8 °F 36.2 °F 40.6 °F 92% 30.26 in 10.0 mi NNW 12.7 mph 19.6 mph N/A   Overcast
3:15 PM 43.0 °F 37.7 °F 40.8 °F 92% 30.25 in 10.0 mi NNW 9.2 mph - N/A   Overcast
3:35 PM 43.3 °F 36.5 °F 40.1 °F 88% 30.25 in 10.0 mi NNW 13.8 mph 20.7 mph N/A   Overcast
3:55 PM 42.8 °F 35.8 °F 39.2 °F 87% 30.25 in 10.0 mi NNW 13.8 mph 20.7 mph N/A   Overcast
4:15 PM 42.6 °F 36.3 °F 38.3 °F 85% 30.25 in 10.0 mi North 11.5 mph 18.4 mph N/A   Overcast
4:35 PM 42.6 °F 37.2 °F 37.9 °F 83% 30.25 in 10.0 mi NNW 9.2 mph 16.1 mph N/A   Overcast
4:55 PM 42.3 °F 35.5 °F 37.8 °F 84% 30.25 in 10.0 mi NW 12.7 mph 17.3 mph N/A   Overcast
5:15 PM 41.7 °F 35.6 °F 37.2 °F 84% 30.26 in 10.0 mi NNW 10.4 mph - N/A   Overcast
5:35 PM 41.4 °F 34.7 °F 37.6 °F 86% 30.27 in 3.0 mi NNW 11.5 mph 19.6 mph N/A Rain Rain
5:55 PM 40.5 °F 35.1 °F 39.0 °F 95% 30.26 in 2.0 mi NNW 8.1 mph 18.4 mph 0.03 in Rain Rain
6:15 PM 40.3 °F 33.0 °F 39.4 °F 97% 30.26 in 4.0 mi NNW 12.7 mph 19.6 mph 0.02 in Rain Light Rain
6:35 PM 39.9 °F 32.5 °F 38.7 °F 95% 30.25 in 10.0 mi NNW 12.7 mph 18.4 mph 0.02 in   Overcast
6:55 PM 39.7 °F 33.2 °F 38.5 °F 95% 30.25 in 7.0 mi NNW 10.4 mph 19.6 mph 0.02 in Rain Light Rain
7:15 PM 39.4 °F 31.4 °F 38.1 °F 95% 30.25 in 10.0 mi NNW 13.8 mph 19.6 mph N/A   Light Drizzle
7:35 PM 39.0 °F 30.6 °F 37.4 °F 94% 30.25 in 10.0 mi North 15.0 mph 20.7 mph N/A   Overcast
7:55 PM 38.7 °F 30.5 °F 36.9 °F 93% 30.26 in 10.0 mi NNW 13.8 mph 20.7 mph N/A   Overcast
8:15 PM 38.5 °F 31.1 °F 36.7 °F 93% 30.27 in 10.0 mi NNW 11.5 mph - N/A   Overcast
8:35 PM 38.3 °F 29.7 °F 36.0 °F 91% 30.27 in 10.0 mi North 15.0 mph 21.9 mph N/A   Overcast
8:55 PM 38.3 °F 29.3 °F 35.6 °F 90% 30.26 in 10.0 mi North 16.1 mph 23.0 mph N/A   Overcast
9:15 PM 38.3 °F 30.5 °F 35.6 °F 90% 30.25 in 10.0 mi North 12.7 mph 16.1 mph N/A   Overcast
9:35 PM 37.9 °F 30.0 °F 35.6 °F 91% 30.25 in 10.0 mi NNW 12.7 mph 18.4 mph N/A   Overcast
9:55 PM 37.8 °F 29.4 °F 35.2 °F 91% 30.25 in 10.0 mi North 13.8 mph 18.4 mph N/A   Overcast
10:15 PM 37.4 °F 29.3 °F 35.1 °F 91% 30.25 in 7.0 mi North 12.7 mph 18.4 mph N/A   Overcast
10:35 PM 37.2 °F 28.7 °F 34.9 °F 91% 30.24 in 10.0 mi North 13.8 mph 19.6 mph N/A   Overcast
10:55 PM 37.0 °F 29.8 °F 35.2 °F 93% 30.23 in 7.0 mi NNW 10.4 mph - N/A   Overcast
11:15 PM 36.9 °F 29.6 °F 35.6 °F 95% 30.23 in 3.0 mi NNW 10.4 mph 17.3 mph N/A   Drizzle
11:35 PM 36.5 °F 30.3 °F 35.6 °F 97% 30.22 in 4.0 mi NNW 8.1 mph 17.3 mph N/A Rain Light Rain
11:55 PM 36.1 °F 28.7 °F 35.4 °F 97% 30.21 in 3.0 mi NNW 10.4 mph - N/A Rain Rain